Regional Weather Roundup
Issued by NWS New Orleans/Baton Rouge, LA

Home | Current Version | Previous Version | Text Only | Print | Product List | Glossary On
Versions: 1 2 3 4 5 6 7 8 9 10 11 12 13 14 15 16 17 18 19 20 21 22 23 24 25 26 27 28 29 30 31 32 33 34 35 36 37 38 39 40 41 42 43 44 45 46 47 48 49 50
692
ASUS44 KLIX 181012
RWRLIX
NEW ORLEANS REGIONAL WEATHER ROUNDUP
NATIONAL WEATHER SERVICE NEW ORLEANS LA
500 AM CDT SAT APR 18 2015

NOTE: "FAIR" INDICATES FEW OR NO CLOUDS BELOW 12,000 FEET WITH NO
      SIGNIFICANT WEATHER AND/OR OBSTRUCTIONS TO VISIBILITY.
      SKY/WX - SKY CONDITION AND SIGNIFICANT WEATHER.
      TMP - AIR TEMPERATURE.     DP    - DEWPOINT TEMPERATURE.
      RH  - RELATIVE HUMIDITY.   PRES  - PRESSURE.
      HI  - HEAT INDEX.          WCI   - WIND CHILL INDEX.

*  THESE STATIONS ARE NOT NWS OR FAA STATIONS AND ARE NOT UNDER
   NWS QUALITY CONTROL.

LAZ038-040-048-061>063-065>067-069-181100-
SOUTHEAST LOUISIANA

CITY           SKY/WX    TMP DP  RH WIND       PRES   REMARKS
N.O. AUDUBON   NOT AVBL
N.O. INTL ARPT LGT RAIN  73  69  87 SE3       29.91R
N.O. LAKEFRONT LGT RAIN  76  69  79 NE3       29.91S
SLIDELL        LGT RAIN  70  70 100 CALM      29.91R
BATON ROUGE    LGT RAIN  69  68  96 E3        29.91F
BOOTHVILLE     LGT RAIN  70  68  93 NE6       29.89R FOG
BELLE CHASSE   TSTM      72  70  93 NE3       29.89F FOG
BOGALUSA*      LGT RAIN  70  66  89 NE7       29.91F
GALLIANO*      TSTM      68  67  96 CALM      29.92S
NEW ROADS*     LGT RAIN  68  67  98 CALM      29.90F
GONZALES*      CLOUDY    70  70 100 CALM      29.90S THUNDER
HAMMOND*       CLOUDY    70  66  88 N5        29.92S
HOUMA*         TSTM      69  69  99 N5        29.90S
PORT FOURCHON* CLOUDY    70  68  94 NE15G23   29.93F

$$

MSZ070-080>082-181100-
SOUTHERN MISSISSIPPI

CITY           SKY/WX    TMP DP  RH WIND       PRES   REMARKS
MCCOMB         CLOUDY    67  67 100 CALM      29.94R FOG
GULFPORT       LGT RAIN  69  68  96 N5        29.91R FOG
BILOXI         LGT RAIN  70  70 100 NE3       29.92R
PASCAGOULA     FOG       68  68 100 NE3       29.92S VSB 1/2

$$

COASTAL OBSERVATIONS
LAKE AND NEARSHORE STATIONS

STATION/POSITION TIME  TEMP    WIND        PRES    WAVE
                       AIR SEA DIR/SP/G            HT/PER
                 (UTC) (F)     (DEG/KT/KT) (MB)    (FT/S)
PASCAGOULA       0900   71      60/  4/  6 1012.2
WAVELAND YACHT   0900   70 74   10/  5/  6 1012.6
GRAND ISLE       0900   74 76  300/  8/  8 1013.0
SOUTHWEST PASS   0900   70 63  140/ 11/ 12 1012.2
NEW CANAL        0900   75     350/  7/ 10 1012.7
SHELL BEACH      0900   74 76  330/  2/  3 1012.1

OFFSHORE STATIONS

STATION/POSITION TIME  TEMP    WIND        PRES    WAVE
                       AIR SEA DIR/SP/G            HT/PER
                 (UTC) (F)     (DEG/KT/KT) (MB)    (FT/S)
64 S DAUPHIN ISL 0950   75 74  170/  8/  8 1012.4    3/ 6

$$




USA.gov is the U.S. government's official web portal to all federal, state and local government web resources and services.